Time,TemperatureF,DewpointF,PressureIn,WindDirection,WindDirectionDegrees,WindSpeedMPH,WindSpeedGustMPH,Humidity,HourlyPrecipIn,Conditions,Clouds,dailyrainin,SoftwareType,DateUTC
2013-10-08 00:01:00,44.2,41.5,30.03,NW,315,0.0,0.0,90,0.00,,SKC,0.00,VWS V14.01,2013-10-08 04:01:00,
2013-10-08 00:02:00,44.2,41.5,30.03,NW,315,0.0,0.0,90,0.00,,SKC,0.00,VWS V14.01,2013-10-08 04:02:00,
2013-10-08 00:07:00,44.0,41.3,30.03,NW,315,0.0,0.0,90,0.00,,SKC,0.00,VWS V14.01,2013-10-08 04:07:00,
2013-10-08 00:12:00,43.8,41.1,30.03,NW,315,0.0,0.0,90,0.00,,SKC,0.00,VWS V14.01,2013-10-08 04:12:00,
2013-10-08 00:17:00,43.8,41.1,30.03,NW,315,0.0,0.0,90,0.00,,SKC,0.00,VWS V14.01,2013-10-08 04:17:00,
2013-10-08 00:22:00,43.7,41.0,30.03,NW,315,0.0,0.0,90,0.00,,SKC,0.00,VWS V14.01,2013-10-08 04:22:00,
2013-10-08 00:27:00,43.7,41.0,30.03,NW,315,0.0,0.0,90,0.00,,SKC,0.00,VWS V14.01,2013-10-08 04:27:00,
2013-10-08 00:32:00,43.5,40.8,30.03,NW,315,0.0,0.0,90,0.00,,SKC,0.00,VWS V14.01,2013-10-08 04:32:00,
2013-10-08 00:37:00,43.5,40.8,30.03,NW,315,0.0,0.0,90,0.00,,SKC,0.00,VWS V14.01,2013-10-08 04:37:00,
2013-10-08 00:42:00,43.3,40.6,30.04,NW,315,0.0,0.0,90,0.00,,SKC,0.00,VWS V14.01,2013-10-08 04:42:00,
2013-10-08 00:47:00,43.3,40.6,30.04,NW,315,0.0,0.0,90,0.00,,SKC,0.00,VWS V14.01,2013-10-08 04:47:00,
2013-10-08 00:52:00,43.3,40.6,30.04,NW,315,0.0,0.0,90,0.00,,SKC,0.00,VWS V14.01,2013-10-08 04:52:00,
2013-10-08 00:57:00,43.1,40.4,30.04,NW,315,0.0,0.0,90,0.00,,SKC,0.00,VWS V14.01,2013-10-08 04:57:00,
2013-10-08 01:02:00,43.1,40.7,30.04,NW,315,0.0,0.0,91,0.00,,SKC,0.00,VWS V14.01,2013-10-08 05:02:00,
2013-10-08 01:07:00,43.1,40.7,30.04,NW,315,0.0,0.0,91,0.00,,SKC,0.00,VWS V14.01,2013-10-08 05:07:00,
2013-10-08 01:12:00,42.9,40.5,30.04,NW,315,0.0,0.0,91,0.00,,SKC,0.00,VWS V14.01,2013-10-08 05:12:00,
2013-10-08 01:17:00,42.9,40.5,30.04,NW,315,0.0,0.0,91,0.00,,SKC,0.00,VWS V14.01,2013-10-08 05:17:00,
2013-10-08 01:22:00,42.9,40.5,30.04,NW,315,0.0,0.0,91,0.00,,SKC,0.00,VWS V14.01,2013-10-08 05:22:00,
2013-10-08 01:27:00,42.9,40.5,30.04,NW,315,0.0,0.0,91,0.00,,SKC,0.00,VWS V14.01,2013-10-08 05:27:00,
2013-10-08 01:32:00,42.9,40.5,30.04,NW,315,0.0,0.0,91,0.00,,SKC,0.00,VWS V14.01,2013-10-08 05:32:00,
2013-10-08 01:37:00,42.9,40.5,30.04,NW,315,0.0,0.0,91,0.00,,SKC,0.00,VWS V14.01,2013-10-08 05:37:00,
2013-10-08 01:43:00,42.9,40.5,30.04,NW,315,0.0,0.0,91,0.00,,SKC,0.00,VWS V14.01,2013-10-08 05:43:00,
2013-10-08 01:48:00,42.9,40.5,30.04,NW,315,0.0,0.0,91,0.00,,SKC,0.00,VWS V14.01,2013-10-08 05:48:00,
2013-10-08 01:53:00,42.9,40.5,30.04,NW,315,0.0,0.0,91,0.00,,SKC,0.00,VWS V14.01,2013-10-08 05:53:00,
2013-10-08 01:58:00,42.9,40.5,30.04,NW,315,0.0,0.0,91,0.00,,SKC,0.00,VWS V14.01,2013-10-08 05:58:00,
2013-10-08 02:03:00,42.9,40.5,30.04,NW,315,0.0,0.0,91,0.00,,SKC,0.00,VWS V14.01,2013-10-08 06:03:00,
2013-10-08 02:08:00,42.9,40.5,30.04,NW,315,0.0,0.0,91,0.00,,SKC,0.00,VWS V14.01,2013-10-08 06:08:00,
2013-10-08 02:13:00,42.9,40.5,30.04,NW,315,0.0,0.0,91,0.00,,SKC,0.00,VWS V14.01,2013-10-08 06:13:00,
2013-10-08 02:18:00,42.8,40.4,30.04,NW,315,0.0,0.0,91,0.00,,SKC,0.00,VWS V14.01,2013-10-08 06:18:00,
2013-10-08 02:23:00,42.6,40.2,30.04,NW,315,0.0,0.0,91,0.00,,SKC,0.00,VWS V14.01,2013-10-08 06:23:00,
2013-10-08 02:28:00,42.6,40.2,30.05,NW,315,0.0,0.0,91,0.00,,SKC,0.00,VWS V14.01,2013-10-08 06:28:00,
2013-10-08 02:33:00,42.6,40.2,30.05,NW,315,0.0,0.0,91,0.00,,SKC,0.00,VWS V14.01,2013-10-08 06:33:00,
2013-10-08 02:38:00,42.6,40.2,30.05,NW,315,0.0,0.0,91,0.00,,SKC,0.00,VWS V14.01,2013-10-08 06:38:00,
2013-10-08 02:43:00,42.6,40.2,30.06,NW,315,0.0,0.0,91,0.00,,SKC,0.00,VWS V14.01,2013-10-08 06:43:00,
2013-10-08 02:48:00,42.4,40.0,30.06,NW,315,0.0,0.0,91,0.00,,SKC,0.00,VWS V14.01,2013-10-08 06:48:00,
2013-10-08 02:53:00,42.4,40.0,30.06,NW,315,0.0,0.0,91,0.00,,SKC,0.00,VWS V14.01,2013-10-08 06:53:00,
2013-10-08 02:58:00,42.4,40.0,30.06,NW,315,0.0,0.0,91,0.00,,SKC,0.00,VWS V14.01,2013-10-08 06:58:00,
2013-10-08 03:03:00,42.4,40.2,30.06,NW,315,0.0,0.0,92,0.00,,SKC,0.00,VWS V14.01,2013-10-08 07:03:00,
2013-10-08 03:08:00,42.4,40.2,30.06,NW,315,0.0,0.0,92,0.00,,SKC,0.00,VWS V14.01,2013-10-08 07:08:00,
2013-10-08 03:13:00,42.4,40.2,30.06,NW,315,0.0,0.0,92,0.00,,SKC,0.00,VWS V14.01,2013-10-08 07:13:00,
2013-10-08 03:18:00,42.4,40.2,30.06,NW,315,0.0,0.0,92,0.00,,SKC,0.00,VWS V14.01,2013-10-08 07:18:00,
2013-10-08 03:23:00,42.4,40.2,30.06,NW,315,0.0,0.0,92,0.00,,SKC,0.00,VWS V14.01,2013-10-08 07:23:00,
2013-10-08 03:28:00,42.4,40.2,30.06,NW,315,0.0,0.0,92,0.00,,SKC,0.00,VWS V14.01,2013-10-08 07:28:00,
2013-10-08 03:33:00,42.4,40.2,30.07,NW,315,0.0,0.0,92,0.00,,SKC,0.00,VWS V14.01,2013-10-08 07:33:00,
2013-10-08 03:38:00,42.0,39.8,30.07,NW,315,0.0,0.0,92,0.00,,SKC,0.00,VWS V14.01,2013-10-08 07:38:00,
2013-10-08 03:43:00,42.0,39.8,30.07,NW,315,0.0,0.0,92,0.00,,SKC,0.00,VWS V14.01,2013-10-08 07:43:00,
2013-10-08 03:48:00,42.0,39.8,30.07,NW,315,0.0,0.0,92,0.00,,SKC,0.00,VWS V14.01,2013-10-08 07:48:00,
2013-10-08 03:53:00,42.0,39.8,30.07,NW,315,0.0,0.0,92,0.00,,SKC,0.00,VWS V14.01,2013-10-08 07:53:00,
2013-10-08 03:58:00,42.0,39.8,30.07,NW,315,0.0,0.0,92,0.00,,SKC,0.00,VWS V14.01,2013-10-08 07:58:00,
2013-10-08 04:03:00,42.0,39.8,30.08,NW,315,0.0,0.0,92,0.00,,SKC,0.00,VWS V14.01,2013-10-08 08:03:00,
2013-10-08 04:08:00,42.0,39.8,30.08,NW,315,0.0,0.0,92,0.00,,SKC,0.00,VWS V14.01,2013-10-08 08:08:00,
2013-10-08 04:13:00,42.0,39.8,30.08,NW,315,0.0,0.0,92,0.00,,SKC,0.00,VWS V14.01,2013-10-08 08:13:00,
2013-10-08 04:18:00,42.0,39.8,30.08,NW,315,0.0,0.0,92,0.00,,SKC,0.00,VWS V14.01,2013-10-08 08:18:00,
2013-10-08 04:23:00,42.0,39.8,30.08,NW,315,0.0,0.0,92,0.00,,SKC,0.00,VWS V14.01,2013-10-08 08:23:00,
2013-10-08 04:28:00,42.0,39.8,30.08,NW,315,0.0,0.0,92,0.00,,SKC,0.00,VWS V14.01,2013-10-08 08:28:00,
2013-10-08 04:33:00,42.0,39.8,30.08,NW,315,0.0,0.0,92,0.00,,SKC,0.00,VWS V14.01,2013-10-08 08:33:00,
2013-10-08 04:38:00,42.0,39.8,30.08,NW,315,0.0,0.0,92,0.00,,SKC,0.00,VWS V14.01,2013-10-08 08:38:00,
2013-10-08 04:43:00,42.0,39.8,30.08,NW,315,0.0,0.0,92,0.00,,SKC,0.00,VWS V14.01,2013-10-08 08:43:00,
2013-10-08 04:48:00,42.0,40.1,30.09,NW,315,0.0,0.0,93,0.00,,SKC,0.00,VWS V14.01,2013-10-08 08:48:00,
2013-10-08 04:53:00,42.0,40.1,30.09,NW,315,0.0,0.0,93,0.00,,SKC,0.00,VWS V14.01,2013-10-08 08:53:00,
2013-10-08 04:58:00,42.0,40.1,30.09,NW,315,0.0,0.0,93,0.00,,SKC,0.00,VWS V14.01,2013-10-08 08:58:00,
2013-10-08 05:03:00,42.0,40.1,30.09,NW,315,0.0,0.0,93,0.00,,SKC,0.00,VWS V14.01,2013-10-08 09:03:00,
2013-10-08 05:08:00,42.0,39.8,30.10,NW,315,0.0,0.0,92,0.00,,SKC,0.00,VWS V14.01,2013-10-08 09:08:00,
2013-10-08 05:13:00,42.0,40.1,30.09,NW,315,0.0,0.0,93,0.00,,SKC,0.00,VWS V14.01,2013-10-08 09:13:00,
2013-10-08 05:18:00,42.0,40.1,30.09,NW,315,0.0,0.0,93,0.00,,SKC,0.00,VWS V14.01,2013-10-08 09:18:00,
2013-10-08 05:23:00,42.0,40.1,30.10,NW,315,0.0,0.0,93,0.00,,SKC,0.00,VWS V14.01,2013-10-08 09:23:00,
2013-10-08 05:28:00,42.0,40.1,30.10,NW,315,0.0,0.0,93,0.00,,SKC,0.00,VWS V14.01,2013-10-08 09:28:00,
2013-10-08 05:33:00,42.0,40.1,30.10,NW,315,0.0,0.0,93,0.00,,SKC,0.00,VWS V14.01,2013-10-08 09:33:00,
2013-10-08 05:38:00,42.0,40.1,30.09,NW,315,0.0,0.0,93,0.00,,SKC,0.00,VWS V14.01,2013-10-08 09:38:00,
2013-10-08 05:43:00,42.0,40.1,30.09,NW,315,0.0,0.0,93,0.00,,SKC,0.00,VWS V14.01,2013-10-08 09:43:00,
2013-10-08 05:49:00,41.9,40.0,30.10,NW,315,0.0,0.0,93,0.00,,SKC,0.00,VWS V14.01,2013-10-08 09:49:00,
2013-10-08 05:54:00,41.9,40.0,30.10,NW,315,0.0,0.0,93,0.00,,SKC,0.00,VWS V14.01,2013-10-08 09:54:00,
2013-10-08 05:59:00,41.7,39.8,30.10,NW,315,0.0,0.0,93,0.00,,SKC,0.00,VWS V14.01,2013-10-08 09:59:00,
2013-10-08 06:04:00,41.7,39.8,30.10,NW,315,0.0,0.0,93,0.00,,SKC,0.00,VWS V14.01,2013-10-08 10:04:00,
2013-10-08 06:09:00,41.9,40.0,30.10,NW,315,0.0,0.0,93,0.00,,SKC,0.00,VWS V14.01,2013-10-08 10:09:00,
2013-10-08 06:14:00,41.9,40.0,30.10,NW,315,0.0,0.0,93,0.00,,SKC,0.00,VWS V14.01,2013-10-08 10:14:00,
2013-10-08 06:19:00,41.7,39.8,30.10,NW,315,0.0,0.0,93,0.00,,SKC,0.00,VWS V14.01,2013-10-08 10:19:00,
2013-10-08 06:24:00,41.7,39.8,30.10,NW,315,0.0,0.0,93,0.00,,SKC,0.00,VWS V14.01,2013-10-08 10:24:00,
2013-10-08 06:29:00,41.5,39.6,30.10,NW,315,0.0,0.0,93,0.00,,SKC,0.00,VWS V14.01,2013-10-08 10:29:00,
2013-10-08 06:34:00,41.5,39.6,30.11,NW,315,0.0,0.0,93,0.00,,SKC,0.00,VWS V14.01,2013-10-08 10:34:00,
2013-10-08 06:39:00,41.5,39.6,30.11,NW,315,0.0,0.0,93,0.00,,SKC,0.00,VWS V14.01,2013-10-08 10:39:00,
2013-10-08 06:44:00,41.5,39.6,30.11,NW,315,0.0,0.0,93,0.00,,SKC,0.00,VWS V14.01,2013-10-08 10:44:00,
2013-10-08 06:49:00,41.5,39.6,30.11,NW,315,0.0,0.0,93,0.00,,SKC,0.00,VWS V14.01,2013-10-08 10:49:00,
2013-10-08 06:54:00,41.3,39.4,30.11,NW,315,0.0,0.0,93,0.00,,SKC,0.00,VWS V14.01,2013-10-08 10:54:00,
2013-10-08 06:59:00,41.3,39.4,30.11,NW,315,0.0,0.0,93,0.00,,SKC,0.00,VWS V14.01,2013-10-08 10:59:00,
2013-10-08 07:04:00,41.3,39.4,30.12,NW,315,0.0,0.0,93,0.00,,SKC,0.00,VWS V14.01,2013-10-08 11:04:00,
2013-10-08 07:09:00,41.3,39.4,30.12,NW,315,0.0,0.0,93,0.00,,SKC,0.00,VWS V14.01,2013-10-08 11:09:00,
2013-10-08 07:14:00,41.5,39.6,30.12,NW,315,0.0,0.0,93,0.00,,SKC,0.00,VWS V14.01,2013-10-08 11:14:00,
2013-10-08 07:19:00,41.5,39.6,30.12,NW,315,0.0,0.0,93,0.00,,SKC,0.00,VWS V14.01,2013-10-08 11:19:00,
2013-10-08 07:24:00,41.5,39.6,30.13,NW,315,0.0,0.0,93,0.00,,SKC,0.00,VWS V14.01,2013-10-08 11:24:00,
2013-10-08 07:29:00,41.5,39.6,30.12,NW,315,0.0,0.0,93,0.00,,SKC,0.00,VWS V14.01,2013-10-08 11:29:00,
2013-10-08 07:34:00,41.5,39.6,30.13,NW,315,0.0,0.0,93,0.00,,SKC,0.00,VWS V14.01,2013-10-08 11:34:00,
2013-10-08 07:39:00,41.3,39.4,30.13,NW,315,0.0,0.0,93,0.00,,SKC,0.00,VWS V14.01,2013-10-08 11:39:00,
2013-10-08 07:44:00,41.5,39.6,30.13,NW,315,0.0,0.0,93,0.00,,SKC,0.00,VWS V14.01,2013-10-08 11:44:00,
2013-10-08 07:49:00,41.3,39.4,30.13,NW,315,0.0,0.0,93,0.00,,SKC,0.00,VWS V14.01,2013-10-08 11:49:00,
2013-10-08 07:54:00,41.5,39.6,30.13,NW,315,0.0,0.0,93,0.00,,SKC,0.00,VWS V14.01,2013-10-08 11:54:00,
2013-10-08 07:59:00,41.5,39.6,30.13,NW,315,0.0,0.0,93,0.00,,SKC,0.00,VWS V14.01,2013-10-08 11:59:00,
2013-10-08 08:04:00,41.5,39.6,30.14,NW,315,0.0,0.0,93,0.00,,SKC,0.00,VWS V14.01,2013-10-08 12:04:00,
2013-10-08 08:09:00,41.5,39.6,30.14,NW,315,0.0,0.0,93,0.00,,SKC,0.00,VWS V14.01,2013-10-08 12:09:00,
2013-10-08 08:14:00,41.5,39.6,30.14,NW,315,0.0,0.0,93,0.00,,SKC,0.00,VWS V14.01,2013-10-08 12:14:00,
2013-10-08 08:19:00,41.7,39.8,30.15,NW,315,0.0,0.0,93,0.00,,SKC,0.00,VWS V14.01,2013-10-08 12:19:00,
2013-10-08 08:24:00,41.7,39.8,30.15,NW,315,0.0,0.0,93,0.00,,SKC,0.00,VWS V14.01,2013-10-08 12:24:00,
2013-10-08 08:29:00,42.0,40.1,30.15,NW,315,0.0,0.0,93,0.00,,SKC,0.00,VWS V14.01,2013-10-08 12:29:00,
2013-10-08 08:34:00,42.0,40.1,30.15,NW,315,0.0,0.0,93,0.00,,SKC,0.00,VWS V14.01,2013-10-08 12:34:00,
2013-10-08 08:39:00,42.6,40.7,30.16,NW,315,0.0,0.0,93,0.00,,SKC,0.00,VWS V14.01,2013-10-08 12:39:00,
2013-10-08 08:44:00,42.8,40.9,30.16,NW,315,0.0,0.0,93,0.00,,SKC,0.00,VWS V14.01,2013-10-08 12:44:00,
2013-10-08 08:49:00,42.9,41.0,30.16,NW,315,0.0,0.0,93,0.00,,SKC,0.00,VWS V14.01,2013-10-08 12:49:00,
2013-10-08 08:54:00,43.5,41.9,30.17,NW,315,0.0,0.0,94,0.00,,SKC,0.00,VWS V14.01,2013-10-08 12:54:00,
2013-10-08 08:59:00,43.8,42.2,30.17,NW,315,0.0,0.0,94,0.00,,SKC,0.00,VWS V14.01,2013-10-08 12:59:00,
2013-10-08 09:04:00,44.4,42.8,30.17,NW,315,0.0,0.0,94,0.00,,SKC,0.00,VWS V14.01,2013-10-08 13:04:00,
2013-10-08 09:09:00,44.9,43.3,30.17,NW,315,0.0,0.0,94,0.00,,SKC,0.00,VWS V14.01,2013-10-08 13:09:00,
2013-10-08 09:14:00,45.3,43.7,30.17,NW,315,0.0,0.0,94,0.00,,SKC,0.00,VWS V14.01,2013-10-08 13:14:00,
2013-10-08 09:19:00,45.8,44.2,30.17,NW,315,0.0,0.0,94,0.00,,SKC,0.00,VWS V14.01,2013-10-08 13:19:00,
2013-10-08 09:24:00,46.5,44.9,30.17,NW,315,0.0,0.0,94,0.00,,SKC,0.00,VWS V14.01,2013-10-08 13:24:00,
2013-10-08 09:29:00,46.9,45.3,30.18,NW,315,0.0,0.0,94,0.00,,SKC,0.00,VWS V14.01,2013-10-08 13:29:00,
2013-10-08 09:34:00,47.4,45.8,30.18,NW,315,0.0,0.0,94,0.00,,SKC,0.00,VWS V14.01,2013-10-08 13:34:00,
2013-10-08 09:39:00,48.3,46.7,30.18,NW,315,0.0,0.0,94,0.00,,SKC,0.00,VWS V14.01,2013-10-08 13:39:00,
2013-10-08 09:44:00,49.1,47.5,30.18,WNW,292,0.0,0.0,94,0.00,,SKC,0.00,VWS V14.01,2013-10-08 13:44:00,
2013-10-08 09:49:00,49.8,48.2,30.18,WSW,248,0.0,0.0,94,0.00,,SKC,0.00,VWS V14.01,2013-10-08 13:49:00,
2013-10-08 09:54:00,50.9,49.0,30.18,WNW,292,0.0,0.0,93,0.00,,SKC,0.00,VWS V14.01,2013-10-08 13:54:00,
2013-10-08 09:59:00,51.8,49.8,30.18,WSW,248,0.0,0.0,93,0.00,,SKC,0.00,VWS V14.01,2013-10-08 13:59:00,
2013-10-08 10:04:00,52.5,50.2,30.18,WSW,248,0.0,0.0,92,0.00,,SKC,0.00,VWS V14.01,2013-10-08 14:04:00,
2013-10-08 10:09:00,54.1,51.8,30.18,WSW,248,0.0,0.0,92,0.00,,SKC,0.00,VWS V14.01,2013-10-08 14:09:00,
2013-10-08 10:14:00,55.0,52.1,30.18,WSW,248,0.0,0.0,90,0.00,,SKC,0.00,VWS V14.01,2013-10-08 14:14:00,
2013-10-08 10:19:00,56.1,52.6,30.18,WNW,292,0.0,0.0,88,0.00,,SKC,0.00,VWS V14.01,2013-10-08 14:19:00,
2013-10-08 10:24:00,57.3,53.2,30.18,West,270,0.0,0.0,86,0.00,,SKC,0.00,VWS V14.01,2013-10-08 14:24:00,
2013-10-08 10:29:00,58.6,54.1,30.18,SW,225,0.0,0.0,85,0.00,,SKC,0.00,VWS V14.01,2013-10-08 14:29:00,
2013-10-08 10:34:00,59.5,54.7,30.18,West,270,0.0,0.0,84,0.00,,SKC,0.00,VWS V14.01,2013-10-08 14:34:00,
2013-10-08 10:39:00,60.9,55.0,30.18,West,270,0.0,0.0,81,0.00,,SKC,0.00,VWS V14.01,2013-10-08 14:39:00,
2013-10-08 10:44:00,61.8,55.2,30.18,SSE,158,0.0,0.0,79,0.00,,SKC,0.00,VWS V14.01,2013-10-08 14:44:00,
2013-10-08 10:49:00,62.4,54.8,30.18,WSW,248,0.0,0.0,76,0.00,,SKC,0.00,VWS V14.01,2013-10-08 14:49:00,
2013-10-08 10:54:00,63.6,54.8,30.18,SW,225,0.0,0.0,73,0.00,,SKC,0.00,VWS V14.01,2013-10-08 14:54:00,
2013-10-08 10:59:00,64.2,54.2,30.18,SSW,202,0.0,0.0,70,0.00,,SKC,0.00,VWS V14.01,2013-10-08 14:59:00,
2013-10-08 11:04:00,64.7,54.7,30.18,SW,225,0.0,0.0,70,0.00,,SKC,0.00,VWS V14.01,2013-10-08 15:04:00,
2013-10-08 11:09:00,65.4,54.2,30.18,South,180,0.0,2.4,67,0.00,,SKC,0.00,VWS V14.01,2013-10-08 15:09:00,
2013-10-08 11:14:00,66.0,54.3,30.18,South,180,2.6,2.6,66,0.00,,SKC,0.00,VWS V14.01,2013-10-08 15:14:00,
2013-10-08 11:20:00,66.7,53.7,30.18,WSW,248,0.0,0.0,63,0.00,,SKC,0.00,VWS V14.01,2013-10-08 15:20:00,
2013-10-08 11:25:00,67.1,54.1,30.18,South,180,1.5,1.7,63,0.00,,SKC,0.00,VWS V14.01,2013-10-08 15:25:00,
2013-10-08 11:30:00,67.4,53.5,30.18,SSE,158,4.6,4.6,61,0.00,,SKC,0.00,VWS V14.01,2013-10-08 15:30:00,
2013-10-08 11:35:00,67.6,53.7,30.18,South,180,1.7,4.6,61,0.00,,SKC,0.00,VWS V14.01,2013-10-08 15:35:00,
2013-10-08 11:40:00,67.8,53.4,30.18,SSE,158,0.0,4.6,60,0.00,,SKC,0.00,VWS V14.01,2013-10-08 15:40:00,
2013-10-08 11:45:00,68.1,52.8,30.18,SE,135,3.1,3.1,58,0.00,,SKC,0.00,VWS V14.01,2013-10-08 15:45:00,
2013-10-08 11:50:00,68.3,53.0,30.18,South,180,2.4,3.1,58,0.00,,SKC,0.00,VWS V14.01,2013-10-08 15:50:00,
2013-10-08 11:55:00,68.5,53.2,30.18,SSW,202,2.4,3.1,58,0.00,,SKC,0.00,VWS V14.01,2013-10-08 15:55:00,
2013-10-08 12:00:00,68.7,51.9,30.18,South,180,0.0,4.4,55,0.00,,SKC,0.00,VWS V14.01,2013-10-08 16:00:00,
2013-10-08 12:05:00,68.7,51.9,30.18,SSW,202,0.0,1.7,55,0.00,,SKC,0.00,VWS V14.01,2013-10-08 16:05:00,
2013-10-08 12:10:00,68.9,51.6,30.18,SSE,158,2.4,2.4,54,0.00,,SKC,0.00,VWS V14.01,2013-10-08 16:10:00,
2013-10-08 12:15:00,68.9,51.1,30.18,SW,225,3.1,3.1,53,0.00,,SKC,0.00,VWS V14.01,2013-10-08 16:15:00,
2013-10-08 12:20:00,68.9,51.1,30.18,SE,135,1.1,3.1,53,0.00,,SKC,0.00,VWS V14.01,2013-10-08 16:20:00,
2013-10-08 12:25:00,69.0,50.7,30.18,SSE,158,4.6,4.6,52,0.00,,SKC,0.00,VWS V14.01,2013-10-08 16:25:00,
2013-10-08 12:30:00,69.4,51.0,30.18,SW,225,4.4,4.4,52,0.00,,SKC,0.00,VWS V14.01,2013-10-08 16:30:00,
2013-10-08 12:35:00,69.6,51.7,30.18,West,270,0.6,4.4,53,0.00,,SKC,0.00,VWS V14.01,2013-10-08 16:35:00,
2013-10-08 12:40:00,70.3,51.9,30.18,South,180,0.8,4.4,52,0.00,,SKC,0.00,VWS V14.01,2013-10-08 16:40:00,
2013-10-08 12:45:00,70.5,52.0,30.17,South,180,0.0,4.4,52,0.00,,SKC,0.00,VWS V14.01,2013-10-08 16:45:00,
2013-10-08 12:50:00,70.8,51.8,30.17,South,180,0.0,0.4,51,0.00,,SKC,0.00,VWS V14.01,2013-10-08 16:50:00,
2013-10-08 12:55:00,71.0,52.0,30.17,SSE,158,1.7,1.7,51,0.00,,SKC,0.00,VWS V14.01,2013-10-08 16:55:00,
2013-10-08 13:00:00,71.4,51.8,30.17,South,180,4.4,4.4,50,0.00,,SKC,0.00,VWS V14.01,2013-10-08 17:00:00,
2013-10-08 13:05:00,71.2,51.6,30.17,SW,225,0.0,4.4,50,0.00,,SKC,0.00,VWS V14.01,2013-10-08 17:05:00,
2013-10-08 13:10:00,71.4,51.8,30.17,SSE,158,3.8,4.4,50,0.00,,SKC,0.00,VWS V14.01,2013-10-08 17:10:00,
2013-10-08 13:15:00,71.4,50.7,30.18,SW,225,4.0,4.4,48,0.00,,SKC,0.00,VWS V14.01,2013-10-08 17:15:00,
2013-10-08 13:19:00,71.4,50.7,30.17,South,180,0.0,2.4,48,0.00,,SKC,0.00,VWS V14.01,2013-10-08 17:19:00,
2013-10-08 13:25:00,71.2,50.5,30.17,SW,225,3.3,4.0,48,0.00,,SKC,0.00,VWS V14.01,2013-10-08 17:25:00,
2013-10-08 13:29:00,71.4,51.3,30.17,SW,225,0.0,4.0,49,0.00,,SKC,0.00,VWS V14.01,2013-10-08 17:29:00,
2013-10-08 13:34:00,71.7,51.0,30.17,SSE,158,0.0,0.4,48,0.00,,SKC,0.00,VWS V14.01,2013-10-08 17:34:00,
2013-10-08 13:39:00,72.3,51.0,30.17,SE,135,0.0,0.4,47,0.00,,SKC,0.00,VWS V14.01,2013-10-08 17:39:00,
2013-10-08 13:44:00,72.5,51.2,30.16,NE,45,1.3,1.3,47,0.00,,SKC,0.00,VWS V14.01,2013-10-08 17:44:00,
2013-10-08 13:49:00,72.5,51.2,30.16,West,270,0.0,0.8,47,0.00,,SKC,0.00,VWS V14.01,2013-10-08 17:49:00,
2013-10-08 13:55:00,72.6,50.7,30.16,South,180,3.5,3.5,46,0.00,,SKC,0.00,VWS V14.01,2013-10-08 17:55:00,
2013-10-08 13:59:00,72.6,50.7,30.16,South,180,0.0,3.5,46,0.00,,SKC,0.00,VWS V14.01,2013-10-08 17:59:00,
2013-10-08 14:04:00,72.6,50.7,30.16,SSE,158,0.0,2.2,46,0.00,,SKC,0.00,VWS V14.01,2013-10-08 18:04:00,
2013-10-08 14:09:00,73.2,51.2,30.16,WSW,248,3.5,3.5,46,0.00,,SKC,0.00,VWS V14.01,2013-10-08 18:09:00,
2013-10-08 14:14:00,73.2,50.6,30.16,SSE,158,0.0,3.8,45,0.00,,SKC,0.00,VWS V14.01,2013-10-08 18:14:00,
2013-10-08 14:19:00,73.7,51.1,30.15,WNW,292,0.0,0.8,45,0.00,,SKC,0.00,VWS V14.01,2013-10-08 18:19:00,
2013-10-08 14:24:00,73.9,50.6,30.16,West,270,0.0,2.9,44,0.00,,SKC,0.00,VWS V14.01,2013-10-08 18:24:00,
2013-10-08 14:29:00,73.7,50.5,30.16,SW,225,1.5,2.9,44,0.00,,SKC,0.00,VWS V14.01,2013-10-08 18:29:00,
2013-10-08 14:34:00,73.5,50.3,30.15,South,180,3.5,3.5,44,0.00,,SKC,0.00,VWS V14.01,2013-10-08 18:34:00,
2013-10-08 14:39:00,73.7,51.1,30.15,South,180,6.0,6.0,45,0.00,,SKC,0.00,VWS V14.01,2013-10-08 18:39:00,
2013-10-08 14:44:00,73.5,50.9,30.15,SSW,202,2.0,6.0,45,0.00,,SKC,0.00,VWS V14.01,2013-10-08 18:44:00,
2013-10-08 14:49:00,73.7,51.1,30.15,SSE,158,1.5,2.6,45,0.00,,SKC,0.00,VWS V14.01,2013-10-08 18:49:00,
2013-10-08 14:54:00,73.7,50.5,30.15,SE,135,0.0,2.6,44,0.00,,SKC,0.00,VWS V14.01,2013-10-08 18:54:00,
2013-10-08 14:59:00,74.1,50.8,30.15,SSW,202,2.0,2.6,44,0.00,,SKC,0.00,VWS V14.01,2013-10-08 18:59:00,
2013-10-08 15:04:00,74.4,51.7,30.15,South,180,0.0,2.9,45,0.00,,SKC,0.00,VWS V14.01,2013-10-08 19:04:00,
2013-10-08 15:09:00,74.8,50.8,30.15,SSW,202,0.0,2.9,43,0.00,,SKC,0.00,VWS V14.01,2013-10-08 19:09:00,
2013-10-08 15:14:00,74.4,50.5,30.15,West,270,0.8,2.9,43,0.00,,SKC,0.00,VWS V14.01,2013-10-08 19:14:00,
2013-10-08 15:19:00,74.1,50.2,30.15,SSW,202,0.0,1.7,43,0.00,,SKC,0.00,VWS V14.01,2013-10-08 19:19:00,
2013-10-08 15:24:00,73.9,50.6,30.15,SW,225,2.6,2.9,44,0.00,,SKC,0.00,VWS V14.01,2013-10-08 19:24:00,
2013-10-08 15:29:00,73.9,50.0,30.15,South,180,0.0,2.9,43,0.00,,SKC,0.00,VWS V14.01,2013-10-08 19:29:00,
2013-10-08 15:34:00,73.5,49.7,30.15,SSE,158,2.0,2.0,43,0.00,,SKC,0.00,VWS V14.01,2013-10-08 19:34:00,
2013-10-08 15:39:00,73.0,49.2,30.14,East,90,0.0,2.0,43,0.00,,SKC,0.00,VWS V14.01,2013-10-08 19:39:00,
2013-10-08 15:44:00,72.3,49.2,30.14,South,180,4.9,4.9,44,0.00,,SKC,0.00,VWS V14.01,2013-10-08 19:44:00,
2013-10-08 15:49:00,72.1,49.6,30.14,WSW,248,0.4,1.5,45,0.00,,SKC,0.00,VWS V14.01,2013-10-08 19:49:00,
2013-10-08 15:54:00,71.7,49.2,30.14,SSE,158,0.0,1.5,45,0.00,,SKC,0.00,VWS V14.01,2013-10-08 19:54:00,
2013-10-08 15:59:00,71.4,48.4,30.14,West,270,0.0,2.2,44,0.00,,SKC,0.00,VWS V14.01,2013-10-08 19:59:00,
2013-10-08 16:05:00,71.0,48.6,30.14,South,180,2.0,2.0,45,0.00,,SKC,0.00,VWS V14.01,2013-10-08 20:05:00,
2013-10-08 16:10:00,70.3,48.0,30.14,North,0,0.0,3.3,45,0.00,,SKC,0.00,VWS V14.01,2013-10-08 20:10:00,
2013-10-08 16:15:00,70.3,48.6,30.14,WNW,292,0.0,3.3,46,0.00,,SKC,0.00,VWS V14.01,2013-10-08 20:15:00,
2013-10-08 16:20:00,69.6,47.9,30.14,SSW,202,0.0,1.1,46,0.00,,SKC,0.00,VWS V14.01,2013-10-08 20:20:00,
2013-10-08 16:25:00,69.4,48.3,30.15,South,180,0.0,3.1,47,0.00,,SKC,0.00,VWS V14.01,2013-10-08 20:25:00,
2013-10-08 16:30:00,68.9,47.9,30.14,SSE,158,0.0,3.1,47,0.00,,SKC,0.00,VWS V14.01,2013-10-08 20:30:00,
2013-10-08 16:35:00,68.5,47.5,30.14,SSW,202,0.0,0.0,47,0.00,,SKC,0.00,VWS V14.01,2013-10-08 20:35:00,
2013-10-08 16:40:00,68.3,47.9,30.14,WSW,248,0.0,0.0,48,0.00,,SKC,0.00,VWS V14.01,2013-10-08 20:40:00,
2013-10-08 16:45:00,67.8,47.4,30.14,SW,225,0.0,0.0,48,0.00,,SKC,0.00,VWS V14.01,2013-10-08 20:45:00,
2013-10-08 16:50:00,67.6,47.2,30.14,SW,225,0.0,3.3,48,0.00,,SKC,0.00,VWS V14.01,2013-10-08 20:50:00,
2013-10-08 16:55:00,67.2,46.9,30.14,SSW,202,1.3,3.3,48,0.00,,SKC,0.00,VWS V14.01,2013-10-08 20:55:00,
2013-10-08 17:00:00,66.9,47.1,30.14,SSW,202,0.0,0.0,49,0.00,,SKC,0.00,VWS V14.01,2013-10-08 21:00:00,
2013-10-08 17:05:00,66.7,47.0,30.14,SSE,158,0.0,2.2,49,0.00,,SKC,0.00,VWS V14.01,2013-10-08 21:05:00,
2013-10-08 17:10:00,66.3,47.1,30.14,South,180,0.0,2.2,50,0.00,,SKC,0.00,VWS V14.01,2013-10-08 21:10:00,
2013-10-08 17:15:00,66.0,46.8,30.14,SSW,202,0.0,0.0,50,0.00,,SKC,0.00,VWS V14.01,2013-10-08 21:15:00,
2013-10-08 17:20:00,66.0,46.8,30.14,South,180,0.0,0.0,50,0.00,,SKC,0.00,VWS V14.01,2013-10-08 21:20:00,
2013-10-08 17:25:00,65.6,46.5,30.15,SSE,158,0.0,0.0,50,0.00,,SKC,0.00,VWS V14.01,2013-10-08 21:25:00,
2013-10-08 17:30:00,65.4,46.3,30.15,SSE,158,0.0,0.0,50,0.00,,SKC,0.00,VWS V14.01,2013-10-08 21:30:00,
2013-10-08 17:35:00,65.4,46.3,30.15,SSE,158,3.5,3.5,50,0.00,,SKC,0.00,VWS V14.01,2013-10-08 21:35:00,
2013-10-08 17:40:00,65.1,46.0,30.15,South,180,0.0,3.5,50,0.00,,SKC,0.00,VWS V14.01,2013-10-08 21:40:00,
2013-10-08 17:45:00,64.9,45.8,30.15,South,180,2.9,2.9,50,0.00,,SKC,0.00,VWS V14.01,2013-10-08 21:45:00,
2013-10-08 17:50:00,64.7,45.7,30.15,SSW,202,0.0,2.9,50,0.00,,SKC,0.00,VWS V14.01,2013-10-08 21:50:00,
2013-10-08 17:55:00,64.5,46.0,30.15,WSW,248,2.6,2.9,51,0.00,,SKC,0.00,VWS V14.01,2013-10-08 21:55:00,
2013-10-08 18:00:00,64.2,45.7,30.15,WSW,248,2.6,2.6,51,0.00,,SKC,0.00,VWS V14.01,2013-10-08 22:00:00,
2013-10-08 18:05:00,64.2,46.2,30.15,SSE,158,0.0,2.6,52,0.00,,SKC,0.00,VWS V14.01,2013-10-08 22:05:00,
2013-10-08 18:10:00,63.6,45.7,30.15,SSE,158,0.0,2.6,52,0.00,,SKC,0.00,VWS V14.01,2013-10-08 22:10:00,
2013-10-08 18:15:00,63.6,45.7,30.15,SW,225,0.8,0.8,52,0.00,,SKC,0.00,VWS V14.01,2013-10-08 22:15:00,
2013-10-08 18:20:00,63.6,45.7,30.15,SW,225,0.8,0.8,52,0.00,,SKC,0.00,VWS V14.01,2013-10-08 22:20:00,
2013-10-08 18:25:00,63.3,45.9,30.15,SE,135,0.0,0.8,53,0.00,,SKC,0.00,VWS V14.01,2013-10-08 22:25:00,
2013-10-08 18:30:00,62.9,45.5,30.15,SE,135,0.0,0.0,53,0.00,,SKC,0.00,VWS V14.01,2013-10-08 22:30:00,
2013-10-08 18:35:00,62.7,45.3,30.15,SW,225,0.0,0.0,53,0.00,,SKC,0.00,VWS V14.01,2013-10-08 22:35:00,
2013-10-08 18:40:00,62.2,45.4,30.15,SW,225,0.0,0.0,54,0.00,,SKC,0.00,VWS V14.01,2013-10-08 22:40:00,
2013-10-08 18:45:00,61.3,44.5,30.15,SE,135,0.0,0.0,54,0.00,,SKC,0.00,VWS V14.01,2013-10-08 22:45:00,
2013-10-08 18:50:00,60.9,44.6,30.15,SE,135,0.0,0.0,55,0.00,,SKC,0.00,VWS V14.01,2013-10-08 22:50:00,
2013-10-08 18:55:00,60.4,44.7,30.15,SE,135,0.0,0.0,56,0.00,,SKC,0.00,VWS V14.01,2013-10-08 22:55:00,
2013-10-08 19:00:00,59.7,44.0,30.15,SSE,158,0.0,0.0,56,0.00,,SKC,0.00,VWS V14.01,2013-10-08 23:00:00,
2013-10-08 19:05:00,59.5,43.8,30.15,SSE,158,0.0,0.0,56,0.00,,SKC,0.00,VWS V14.01,2013-10-08 23:05:00,
2013-10-08 19:10:00,59.0,43.8,30.15,SSE,158,0.0,0.0,57,0.00,,SKC,0.00,VWS V14.01,2013-10-08 23:10:00,
2013-10-08 19:15:00,59.0,43.8,30.15,SSE,158,0.0,0.0,57,0.00,,SKC,0.00,VWS V14.01,2013-10-08 23:15:00,
2013-10-08 19:20:00,57.9,43.2,30.15,SSE,158,0.0,0.0,58,0.00,,SKC,0.00,VWS V14.01,2013-10-08 23:20:00,
2013-10-08 19:25:00,57.3,43.1,30.15,SSE,158,0.0,0.0,59,0.00,,SKC,0.00,VWS V14.01,2013-10-08 23:25:00,
2013-10-08 19:30:00,56.8,42.6,30.15,SSE,158,0.0,0.0,59,0.00,,SKC,0.00,VWS V14.01,2013-10-08 23:30:00,
2013-10-08 19:35:00,56.4,42.7,30.15,SSE,158,0.0,0.0,60,0.00,,SKC,0.00,VWS V14.01,2013-10-08 23:35:00,
2013-10-08 19:40:00,55.9,42.7,30.16,SSE,158,0.0,0.0,61,0.00,,SKC,0.00,VWS V14.01,2013-10-08 23:40:00,
2013-10-08 19:45:00,55.7,42.5,30.15,SSE,158,0.0,0.0,61,0.00,,SKC,0.00,VWS V14.01,2013-10-08 23:45:00,
2013-10-08 19:50:00,55.2,42.0,30.16,SSE,158,0.0,0.0,61,0.00,,SKC,0.00,VWS V14.01,2013-10-08 23:50:00,
2013-10-08 19:55:00,55.0,42.2,30.16,SSE,158,0.0,0.0,62,0.00,,SKC,0.00,VWS V14.01,2013-10-08 23:55:00,
2013-10-08 20:01:00,54.8,42.0,30.16,SSE,158,0.0,0.0,62,0.00,,SKC,0.00,VWS V14.01,2013-10-09 00:01:00,
2013-10-08 20:06:00,54.3,42.0,30.16,SSE,158,0.0,0.0,63,0.00,,SKC,0.00,VWS V14.01,2013-10-09 00:06:00,
2013-10-08 20:11:00,54.3,42.0,30.16,SE,135,0.0,0.0,63,0.00,,SKC,0.00,VWS V14.01,2013-10-09 00:11:00,
2013-10-08 20:16:00,54.1,42.2,30.16,SE,135,0.0,0.0,64,0.00,,SKC,0.00,VWS V14.01,2013-10-09 00:16:00,
2013-10-08 20:21:00,53.7,41.8,30.16,SE,135,0.0,0.0,64,0.00,,SKC,0.00,VWS V14.01,2013-10-09 00:21:00,
2013-10-08 20:26:00,53.7,41.8,30.17,SE,135,0.0,0.0,64,0.00,,SKC,0.00,VWS V14.01,2013-10-09 00:26:00,
2013-10-08 20:31:00,53.4,41.5,30.17,SE,135,0.0,0.0,64,0.00,,SKC,0.00,VWS V14.01,2013-10-09 00:31:00,
2013-10-08 20:36:00,53.2,41.3,30.17,SE,135,0.0,0.0,64,0.00,,SKC,0.00,VWS V14.01,2013-10-09 00:36:00,
2013-10-08 20:41:00,53.2,41.8,30.16,SE,135,0.0,0.0,65,0.00,,SKC,0.00,VWS V14.01,2013-10-09 00:41:00,
2013-10-08 20:46:00,52.8,41.8,30.17,SE,135,0.0,0.0,66,0.00,,SKC,0.00,VWS V14.01,2013-10-09 00:46:00,
2013-10-08 20:51:00,52.8,41.8,30.17,SE,135,0.0,0.0,66,0.00,,SKC,0.00,VWS V14.01,2013-10-09 00:51:00,
2013-10-08 20:56:00,52.7,42.1,30.17,SE,135,0.0,0.0,67,0.00,,SKC,0.00,VWS V14.01,2013-10-09 00:56:00,
2013-10-08 21:01:00,52.5,41.9,30.17,SE,135,0.0,0.0,67,0.00,,SKC,0.00,VWS V14.01,2013-10-09 01:01:00,
2013-10-08 21:06:00,52.3,41.7,30.17,SE,135,0.0,0.0,67,0.00,,SKC,0.00,VWS V14.01,2013-10-09 01:06:00,
2013-10-08 21:11:00,52.1,41.9,30.17,SE,135,0.0,0.0,68,0.00,,SKC,0.00,VWS V14.01,2013-10-09 01:11:00,
2013-10-08 21:16:00,51.9,41.7,30.17,SE,135,0.0,0.0,68,0.00,,SKC,0.00,VWS V14.01,2013-10-09 01:16:00,
2013-10-08 21:21:00,51.8,41.6,30.17,SE,135,0.0,0.0,68,0.00,,SKC,0.00,VWS V14.01,2013-10-09 01:21:00,
2013-10-08 21:26:00,51.6,41.8,30.18,SE,135,0.0,0.0,69,0.00,,SKC,0.00,VWS V14.01,2013-10-09 01:26:00,
2013-10-08 21:31:00,51.6,41.8,30.17,SE,135,0.0,0.0,69,0.00,,SKC,0.00,VWS V14.01,2013-10-09 01:31:00,
2013-10-08 21:36:00,51.4,41.6,30.18,SE,135,0.0,0.0,69,0.00,,SKC,0.00,VWS V14.01,2013-10-09 01:36:00,
2013-10-08 21:41:00,51.0,41.2,30.18,SE,135,0.0,0.0,69,0.00,,SKC,0.00,VWS V14.01,2013-10-09 01:41:00,
2013-10-08 21:46:00,51.0,41.6,30.18,SE,135,0.0,0.0,70,0.00,,SKC,0.00,VWS V14.01,2013-10-09 01:46:00,
2013-10-08 21:51:00,50.7,41.7,30.19,SE,135,0.0,0.0,71,0.00,,SKC,0.00,VWS V14.01,2013-10-09 01:51:00,
2013-10-08 21:56:00,50.5,41.5,30.18,SE,135,0.0,0.0,71,0.00,,SKC,0.00,VWS V14.01,2013-10-09 01:56:00,
2013-10-08 22:01:00,50.3,41.3,30.18,SE,135,0.0,0.0,71,0.00,,SKC,0.00,VWS V14.01,2013-10-09 02:01:00,
2013-10-08 22:06:00,50.1,41.1,30.18,SE,135,0.0,0.0,71,0.00,,SKC,0.00,VWS V14.01,2013-10-09 02:06:00,
2013-10-08 22:11:00,50.0,41.3,30.18,SE,135,0.0,0.0,72,0.00,,SKC,0.00,VWS V14.01,2013-10-09 02:11:00,
2013-10-08 22:16:00,49.8,41.2,30.18,SE,135,0.0,0.0,72,0.00,,SKC,0.00,VWS V14.01,2013-10-09 02:16:00,
2013-10-08 22:21:00,49.6,41.3,30.18,SE,135,0.0,0.0,73,0.00,,SKC,0.00,VWS V14.01,2013-10-09 02:21:00,
2013-10-08 22:26:00,49.6,41.3,30.18,SE,135,0.0,0.0,73,0.00,,SKC,0.00,VWS V14.01,2013-10-09 02:26:00,
2013-10-08 22:32:00,49.6,41.7,30.18,SE,135,0.0,0.0,74,0.00,,SKC,0.00,VWS V14.01,2013-10-09 02:32:00,
2013-10-08 22:37:00,49.2,41.3,30.18,SE,135,0.0,0.0,74,0.00,,SKC,0.00,VWS V14.01,2013-10-09 02:37:00,
2013-10-08 22:42:00,49.2,41.6,30.18,SE,135,0.0,0.0,75,0.00,,SKC,0.00,VWS V14.01,2013-10-09 02:42:00,
2013-10-08 22:47:00,49.2,41.6,30.18,SE,135,0.0,0.0,75,0.00,,SKC,0.00,VWS V14.01,2013-10-09 02:47:00,
2013-10-08 22:52:00,49.2,42.0,30.18,SE,135,0.0,0.0,76,0.00,,SKC,0.00,VWS V14.01,2013-10-09 02:52:00,
2013-10-08 22:57:00,49.2,42.0,30.18,SE,135,0.0,0.0,76,0.00,,SKC,0.00,VWS V14.01,2013-10-09 02:57:00,
2013-10-08 23:02:00,49.2,42.0,30.18,SE,135,0.0,0.0,76,0.00,,SKC,0.00,VWS V14.01,2013-10-09 03:02:00,
2013-10-08 23:07:00,49.2,42.0,30.18,SE,135,0.0,0.0,76,0.00,,SKC,0.00,VWS V14.01,2013-10-09 03:07:00,
2013-10-08 23:12:00,49.2,42.0,30.18,SE,135,0.0,0.0,76,0.00,,SKC,0.00,VWS V14.01,2013-10-09 03:12:00,
2013-10-08 23:17:00,49.2,42.0,30.18,SE,135,0.0,0.0,76,0.00,,SKC,0.00,VWS V14.01,2013-10-09 03:17:00,
2013-10-08 23:22:00,49.2,42.3,30.18,SE,135,0.0,0.0,77,0.00,,SKC,0.00,VWS V14.01,2013-10-09 03:22:00,
2013-10-08 23:27:00,49.1,42.2,30.18,SE,135,0.0,0.0,77,0.00,,SKC,0.00,VWS V14.01,2013-10-09 03:27:00,
2013-10-08 23:32:00,49.1,42.2,30.17,SE,135,0.0,0.0,77,0.00,,SKC,0.00,VWS V14.01,2013-10-09 03:32:00,
2013-10-08 23:37:00,49.1,42.5,30.18,SE,135,0.0,0.0,78,0.00,,SKC,0.00,VWS V14.01,2013-10-09 03:37:00,
2013-10-08 23:42:00,49.1,42.5,30.18,SE,135,0.0,0.0,78,0.00,,SKC,0.00,VWS V14.01,2013-10-09 03:42:00,
2013-10-08 23:47:00,49.1,42.5,30.18,SE,135,0.0,0.0,78,0.00,,SKC,0.00,VWS V14.01,2013-10-09 03:47:00,
2013-10-08 23:52:00,49.1,42.5,30.18,SE,135,0.0,0.0,78,0.00,,SKC,0.00,VWS V14.01,2013-10-09 03:52:00,
2013-10-08 23:57:00,49.1,42.5,30.17,SE,135,0.0,0.0,78,0.00,,SKC,0.00,VWS V14.01,2013-10-09 03:57:00,